Weather History for Blue Canyon, CA

Change the Weather History Date:

Wednesday, December 12, 2012

  Actual Average Record
Temperature  
Mean Temperature 29 °F -  
Max Temperature 32 °F 42 °F 66 °F (1958)
Min Temperature 26 °F 30 °F 14 °F (1967)
Degree Days  
Heating Degree Days 36    
Moisture  
Dew Point 28 °F    
Average Humidity 97    
Maximum Humidity 100    
Minimum Humidity 92    
Precipitation  
Precipitation 0.37 in - - ()
Sea Level Pressure  
Sea Level Pressure 29.78 in    
Wind  
Wind Speed 9 mph (South)    
Max Wind Speed 15 mph    
Max Gust Speed 22 mph    
Visibility 3 miles    
Events Fog , Rain , Snow    
Averages and records for this station are not official NWS values.
T = Trace of Precipitation, MM = Missing Value Source: NWS Daily Summary

Daily Weather History Graph

Daily Weather History Graph

Search for Another Location

Airport:

Trip Planner

Search our weather history database for the weather conditions in past years. The results will help you decide how hot, cold, wet, or windy it might be!

Date:

Astronomy

Dec. 12, 2012 Rise Set
Actual Time 7:13 AM PST 4:40 PM PST
Civil Twilight 6:43 AM PST 5:10 PM PST
Nautical Twilight 6:09 AM PST 5:43 PM PST
Astronomical Twilight 5:37 AM PST 6:16 PM PST
Moon 6:23 AM PST (12/12) 4:22 PM PST (12/12)
Length of Visible Light 10h 26m
Length of Day
9h 26m
Waning Crescent, 0% of the Moon is Illuminated
Dec 12
Waning Crescent
Dec 13
New
Dec 19
First Quarter
Dec 28
Full
Jan 4
Last Quarter

Hourly Weather History & Observations

Time (PST) Temp. Windchill Dew Point Humidity Pressure Visibility Wind Dir Wind Speed Gust Speed Precip Events Conditions
12:10 AM 30.2 °F 21.3 °F 30.2 °F 100% 29.79 in 0.2 mi South 10.4 mph - 0.01 in Fog , Snow Light Snow
12:31 AM 30.2 °F 19.8 °F 30.2 °F 100% 29.79 in 0.2 mi South 13.8 mph - 0.02 in Fog , Rain Light Freezing Rain
12:52 AM 30.9 °F 22.2 °F 30.9 °F 100% 29.74 in 0.2 mi South 10.4 mph - 0.02 in Fog , Rain Light Freezing Rain
1:01 AM 30.2 °F 20.8 °F 30.2 °F 100% 29.78 in 0.2 mi South 11.5 mph - 0.01 in Fog , Snow Light Snow
1:18 AM 30.2 °F 21.3 °F 30.2 °F 100% 29.78 in 0.5 mi South 10.4 mph - 0.02 in Fog , Snow Light Snow
1:52 AM 30.9 °F 22.2 °F 30.9 °F 100% 29.73 in 0.2 mi SSE 10.4 mph - 0.04 in Fog , Rain Light Freezing Rain
2:17 AM 32.0 °F 24.2 °F 30.2 °F 93% 29.78 in 0.2 mi South 9.2 mph - 0.00 in Fog , Rain Light Freezing Rain
2:37 AM 32.0 °F 24.8 °F 32.0 °F 100% 29.76 in 0.2 mi SSE 8.1 mph - 0.01 in Fog , Snow Snow
2:48 AM 32.0 °F 25.6 °F 32.0 °F 100% 29.76 in 0.5 mi South 6.9 mph - 0.03 in Fog , Snow Snow
2:52 AM 32.0 °F 25.6 °F 32.0 °F 100% 29.72 in 0.8 mi South 6.9 mph - 0.03 in Snow Light Snow
3:15 AM 32.0 °F 25.6 °F 30.2 °F 93% 29.76 in 0.2 mi South 6.9 mph - 0.01 in Fog Fog
3:36 AM 32.0 °F 24.8 °F 32.0 °F 100% 29.75 in 0.2 mi South 8.1 mph - 0.01 in Fog Fog
3:49 AM 32.0 °F 25.6 °F 32.0 °F 100% 29.75 in 0.5 mi SSW 6.9 mph - 0.01 in Fog , Snow Light Snow
3:52 AM 32.0 °F 22.1 °F 32.0 °F 100% 29.72 in 0.8 mi South 13.8 mph 21.9 mph 0.01 in Snow Light Snow
4:00 AM 32.0 °F 24.8 °F 32.0 °F 100% 29.75 in 1.2 mi South 8.1 mph 21.9 mph 0.00 in   Overcast
4:11 AM 32.0 °F 23.6 °F 32.0 °F 100% 29.75 in 0.5 mi South 10.4 mph 17.3 mph 0.00 in Fog Fog
4:36 AM 32.0 °F 24.2 °F 32.0 °F 100% 29.74 in 0.2 mi South 9.2 mph - 0.01 in Fog , Snow Light Snow
4:52 AM 32.0 °F 23.6 °F 32.0 °F 100% 29.72 in 0.2 mi South 10.4 mph - 0.01 in Fog Fog
5:40 AM 30.2 °F 22.6 °F 30.2 °F 100% 29.74 in 0.5 mi SSW 8.1 mph 19.6 mph N/A Fog Light Freezing Fog
5:52 AM 30.9 °F 23.5 °F 30.9 °F 100% 29.73 in 1.0 mi South 8.1 mph - N/A   Overcast
6:05 AM 30.2 °F 21.3 °F 30.2 °F 100% 29.74 in 1.5 mi SSW 10.4 mph 20.7 mph N/A   Overcast
6:10 AM 30.2 °F 21.9 °F 30.2 °F 100% 29.74 in 0.8 mi South 9.2 mph 21.9 mph N/A   Overcast
6:20 AM 30.2 °F 20.8 °F 30.2 °F 100% 29.75 in 0.2 mi South 11.5 mph 19.6 mph N/A Fog Light Freezing Fog
6:32 AM 30.2 °F 19.8 °F 30.2 °F 100% 29.74 in 0.5 mi South 13.8 mph 20.7 mph 0.00 in Fog , Snow Light Snow
6:45 AM 30.2 °F 20.8 °F 30.2 °F 100% 29.74 in 0.2 mi South 11.5 mph - 0.00 in Fog , Snow Light Snow
6:52 AM 30.9 °F 21.7 °F 30.9 °F 100% 29.72 in 0.2 mi South 11.5 mph - 0.00 in Fog , Snow Light Snow
7:08 AM 30.2 °F 21.9 °F 30.2 °F 100% 29.74 in 0.5 mi SSW 9.2 mph - 0.03 in Fog , Snow Snow
7:49 AM 30.2 °F 21.3 °F 30.2 °F 100% 29.76 in 0.2 mi South 10.4 mph 19.6 mph 0.08 in Fog , Snow Light Snow
7:52 AM 30.0 °F 21.7 °F 28.9 °F 96% 29.75 in 0.5 mi SSW 9.2 mph 19.6 mph 0.08 in Fog , Snow Light Snow
8:08 AM 30.2 °F 20.8 °F 30.2 °F 100% 29.76 in 0.2 mi South 11.5 mph - 0.00 in Fog , Snow Light Snow
8:41 AM 30.2 °F 22.6 °F 28.4 °F 93% 29.77 in 0.5 mi South 8.1 mph - 0.02 in Fog , Snow Light Snow
8:50 AM 30.2 °F 22.6 °F 30.2 °F 100% 29.77 in 0.2 mi South 8.1 mph - 0.02 in Fog , Snow Light Snow
8:52 AM 30.0 °F 23.2 °F 30.0 °F 100% 29.77 in 0.2 mi South 6.9 mph - 0.02 in Fog , Snow Snow
9:08 AM 30.2 °F 23.4 °F 30.2 °F 100% 29.77 in 0.5 mi South 6.9 mph - 0.01 in Fog , Snow Snow
9:27 AM 30.2 °F 23.4 °F 28.4 °F 93% 29.77 in 1.0 mi Variable 6.9 mph 18.4 mph 0.02 in Snow Light Snow
9:41 AM 30.2 °F 21.3 °F 28.4 °F 93% 29.78 in 1.5 mi South 10.4 mph 17.3 mph 0.02 in Snow Light Snow
9:52 AM 30.0 °F 21.1 °F 28.9 °F 96% 29.80 in 1.5 mi SSW 10.4 mph - 0.02 in Snow Light Snow
9:55 AM 30.2 °F 21.3 °F 28.4 °F 93% 29.78 in 0.8 mi SSW 10.4 mph - 0.00 in Snow Light Snow
10:49 AM 28.4 °F 18.5 °F 28.4 °F 100% 29.78 in 0.2 mi South 11.5 mph - 0.03 in Fog , Snow Light Snow
10:52 AM 28.9 °F 19.2 °F 28.9 °F 100% 29.81 in 0.2 mi South 11.5 mph - 0.03 in Fog , Snow Light Snow
11:09 AM 28.4 °F 19.7 °F 28.4 °F 100% 29.78 in 0.5 mi South 9.2 mph - 0.00 in Fog , Snow Light Snow
11:40 AM 28.4 °F 21.2 °F 28.4 °F 100% 29.77 in 1.5 mi SSW 6.9 mph - 0.01 in   Overcast
11:50 AM 28.4 °F 20.4 °F 28.4 °F 100% 29.77 in 0.8 mi South 8.1 mph - 0.01 in Snow Light Snow
11:52 AM 28.9 °F 20.4 °F 28.9 °F 100% 29.82 in 0.8 mi South 9.2 mph - 0.01 in Snow Light Snow
12:09 PM 28.4 °F 17.0 °F 28.4 °F 100% 29.77 in 0.2 mi South 15.0 mph 21.9 mph 0.01 in Fog , Snow Snow
12:23 PM 28.4 °F 20.4 °F 28.4 °F 100% 29.76 in 0.8 mi South 8.1 mph 18.4 mph 0.01 in Snow Light Snow
12:43 PM 28.4 °F 22.2 °F 28.4 °F 100% 29.76 in 0.2 mi SSW 5.8 mph - 0.03 in Fog , Snow Snow
12:52 PM 28.0 °F 20.8 °F 27.0 °F 96% 29.81 in 0.2 mi South 6.9 mph - 0.05 in Fog , Snow Snow
1:26 PM 28.4 °F 17.5 °F 26.6 °F 93% 29.76 in 0.5 mi South 13.8 mph - 0.02 in Fog , Snow Light Snow
1:32 PM 28.4 °F 18.5 °F 26.6 °F 93% 29.76 in 1.5 mi South 11.5 mph - 0.02 in Snow Light Snow
1:45 PM 28.4 °F 20.4 °F 26.6 °F 93% 29.76 in 3.0 mi South 8.1 mph - 0.02 in   Overcast
1:52 PM 28.0 °F 20.0 °F 27.0 °F 96% 29.80 in 8.0 mi SSW 8.1 mph - 0.02 in   Overcast
2:05 PM 28.4 °F 23.3 °F 26.6 °F 93% 29.75 in 1.8 mi Variable 4.6 mph - 0.00 in Snow Light Snow
2:07 PM 28.4 °F 22.2 °F 26.6 °F 93% 29.76 in 1.0 mi South 5.8 mph - 0.00 in Snow Light Snow
2:13 PM 28.4 °F 19.7 °F 26.6 °F 93% 29.76 in 0.2 mi South 9.2 mph - 0.01 in Fog , Snow Snow
2:52 PM 28.0 °F 20.0 °F 27.0 °F 96% 29.81 in 0.8 mi South 8.1 mph - 0.01 in   Mist
3:10 PM 28.4 °F 20.4 °F 26.6 °F 93% 29.77 in 1.8 mi SSW 8.1 mph - 0.01 in Snow Light Snow
3:25 PM 28.4 °F 20.4 °F 26.6 °F 93% 29.77 in 3.0 mi South 8.1 mph - 0.02 in Snow Light Snow
3:34 PM 28.4 °F 21.2 °F 26.6 °F 93% 29.77 in 9.0 mi South 6.9 mph - 0.02 in   Overcast
3:45 PM 28.4 °F 20.4 °F 26.6 °F 93% 29.78 in 4.0 mi South 8.1 mph - 0.02 in   Overcast
3:52 PM 28.0 °F 20.0 °F 27.0 °F 96% 29.82 in 5.0 mi South 8.1 mph - 0.02 in   Mostly Cloudy
4:06 PM 28.4 °F 22.2 °F 26.6 °F 93% 29.77 in 1.8 mi South 5.8 mph - N/A   Mostly Cloudy
4:17 PM 28.4 °F 22.2 °F 26.6 °F 93% 29.77 in 5.0 mi SSE 5.8 mph - N/A   Mostly Cloudy
4:52 PM 28.0 °F 22.8 °F 26.1 °F 92% 29.82 in 10.0 mi SE 4.6 mph - N/A   Overcast
5:45 PM 26.6 °F - 26.6 °F 100% 29.77 in 10.0 mi Calm Calm - N/A   Overcast
5:52 PM 27.0 °F 23.0 °F 26.1 °F 96% 29.83 in 10.0 mi SE 3.5 mph - N/A   Overcast
6:03 PM 26.6 °F 22.6 °F 26.6 °F 100% 29.77 in 10.0 mi SE 3.5 mph - N/A   Mostly Cloudy
6:21 PM 26.6 °F 21.2 °F 26.6 °F 100% 29.78 in 10.0 mi SSE 4.6 mph - N/A   Mostly Cloudy
6:38 PM 26.6 °F 22.6 °F 24.8 °F 93% 29.78 in 10.0 mi SE 3.5 mph - N/A   Mostly Cloudy
6:52 PM 27.0 °F 23.0 °F 25.0 °F 92% 29.84 in 10.0 mi SE 3.5 mph - N/A   Scattered Clouds
7:52 PM 27.0 °F 23.0 °F 25.0 °F 92% 29.84 in 10.0 mi SE 3.5 mph - N/A   Scattered Clouds
8:16 PM 26.6 °F 22.6 °F 24.8 °F 93% 29.79 in 10.0 mi SSE 3.5 mph - N/A   Mostly Cloudy
8:47 PM 26.6 °F - 24.8 °F 93% 29.79 in 10.0 mi Calm Calm - N/A   Overcast
8:52 PM 27.0 °F - 25.0 °F 92% 29.85 in 10.0 mi Calm Calm - N/A   Overcast
9:52 PM 27.0 °F - 25.0 °F 92% 29.85 in 10.0 mi Calm Calm - N/A   Mostly Cloudy
9:59 PM 26.6 °F - 24.8 °F 93% 29.80 in 10.0 mi Calm Calm - N/A   Mostly Cloudy
10:11 PM 26.6 °F - 24.8 °F 93% 29.80 in 10.0 mi Calm Calm - N/A   Mostly Cloudy
10:31 PM 26.6 °F - 24.8 °F 93% 29.80 in 10.0 mi Calm Calm - N/A   Overcast
10:52 PM 26.1 °F - 25.0 °F 96% 29.87 in 10.0 mi Calm Calm - N/A   Overcast
11:02 PM 26.6 °F - 24.8 °F 93% 29.81 in 10.0 mi Calm Calm - N/A   Overcast
11:36 PM 26.6 °F 22.6 °F 24.8 °F 93% 29.80 in 10.0 mi ESE 3.5 mph - N/A   Overcast
11:52 PM 26.1 °F - 25.0 °F 96% 29.86 in 10.0 mi Calm Calm - N/A   Overcast